Yakima, WA
on Thursday, February 7, 2013

Thursday
Previous Day Next Day
Daily Summary
 ActualAverageRecord
Temperature
Mean Temperature °F / °C 35°F / 2°C  
Max Temperature 53°F / 12°C 44°F / 7°C 60°F / 15°C (1953)
Min Temperature 28°F / -2°C 25°F / -4°C -4°F / -20°C (2014)
Degree Days
Heating Degree Days 24 30  
Month to date heating degree days 175 215  
Since 1 July heating degree days 3444 3933  
Cooling Degree Days 0 0  
Month to date cooling degree days 0 0  
Year to date cooling degree days 0 0  
Moisture
Dew Point 26°F / -3°C   
Average Humidity 57    
Maximum Humidity 85    
Minimum Humidity 28    
Precipitation
Precipitation 0.00 in / 0.00 cm 0.03 in / 0.76 cm 0.79 in / 2.01 cm (2002)
Month to date precipitation T 0.20  
Year to date precipitation 0.10 1.34  
Snow
Snow 0.00 in / 0.00 cm 0.10 in / 0.25 cm 1.70 in / 4.32 cm (1985)
Month to date snowfall 0.0 0.8  
Year to date snowfall 1.1 6.1  
Since 1 July snowfall 15.3 19.1  
Snow Depth 0.00 in / 0.00 cm   
Wind
Wind Speed 3 mph / 4 km/h   
Max Wind Speed 9 mph / 14 km/h   
Max Gust Speed 14 mph / 23 km/h   
Visibility 10 miles / 16 kilometers   
Events     

Key: T is trace of precipitation, MM is missing value
Source: NWS Daily Summary
Time(PST)TemperatureDew PointHumidity Pressure Visibility Wind DirectionWind SpeedGust SpeedPrecipitationEvents Conditions
12:53 AM 37.0°F / 2.8°C 30.0°F / -1.1°C 76% 29.89 in / 1012.1 hPa 10.0 miles / 16.1 kilometers West 6.9 mph / 11.1 km/h - N/A   Mostly Cloudy
1:53 AM 37.0°F / 2.8°C 30.0°F / -1.1°C 76% 29.89 in / 1012.0 hPa 10.0 miles / 16.1 kilometers WNW 6.9 mph / 11.1 km/h - N/A   Scattered Clouds
2:53 AM 36.0°F / 2.2°C 30.9°F / -0.6°C 82% 29.89 in / 1012.0 hPa 10.0 miles / 16.1 kilometers Calm Calm - N/A   Overcast
3:53 AM 34.0°F / 1.1°C 28.9°F / -1.7°C 82% 29.88 in / 1011.9 hPa 10.0 miles / 16.1 kilometers Calm Calm - N/A   Partly Cloudy
4:53 AM 36.0°F / 2.2°C 30.0°F / -1.1°C 79% 29.89 in / 1012.2 hPa 10.0 miles / 16.1 kilometers Variable 4.6 mph / 7.4 km/h - N/A   Mostly Cloudy
5:53 AM 33.1°F / 0.6°C 28.9°F / -1.7°C 85% 29.91 in / 1012.7 hPa 10.0 miles / 16.1 kilometers WSW 3.5 mph / 5.6 km/h - N/A   Mostly Cloudy
6:53 AM 30.0°F / -1.1°C 26.1°F / -3.3°C 85% 29.94 in / 1013.6 hPa 10.0 miles / 16.1 kilometers West 3.5 mph / 5.6 km/h - N/A   Clear
7:53 AM 30.0°F / -1.1°C 26.1°F / -3.3°C 85% 29.96 in / 1014.5 hPa 10.0 miles / 16.1 kilometers Calm Calm - N/A   Clear
8:53 AM 37.9°F / 3.3°C 32.0°F / 0.0°C 79% 29.98 in / 1015.0 hPa 10.0 miles / 16.1 kilometers West 4.6 mph / 7.4 km/h - N/A   Clear
9:53 AM 44.1°F / 6.7°C 32.0°F / 0.0°C 63% 29.98 in / 1015.0 hPa 10.0 miles / 16.1 kilometers Calm Calm - N/A   Clear
10:53 AM 46.0°F / 7.8°C 30.9°F / -0.6°C 56% 29.99 in / 1015.3 hPa 10.0 miles / 16.1 kilometers Calm Calm - N/A   Clear
11:53 AM 50.0°F / 10.0°C 28.9°F / -1.7°C 44% 29.96 in / 1014.6 hPa 10.0 miles / 16.1 kilometers Calm Calm - N/A   Clear
12:53 PM 51.1°F / 10.6°C 26.1°F / -3.3°C 38% 29.96 in / 1014.3 hPa 10.0 miles / 16.1 kilometers Calm Calm - N/A   Scattered Clouds
1:53 PM 52.0°F / 11.1°C 23.0°F / -5.0°C 32% 29.95 in / 1014.0 hPa 10.0 miles / 16.1 kilometers West 5.8 mph / 9.3 km/h - N/A   Scattered Clouds
2:53 PM 51.1°F / 10.6°C 19.9°F / -6.7°C 29% 29.95 in / 1014.2 hPa 10.0 miles / 16.1 kilometers Calm Calm - N/A   Mostly Cloudy
3:53 PM 51.1°F / 10.6°C 21.0°F / -6.1°C 31% 29.96 in / 1014.5 hPa 10.0 miles / 16.1 kilometers SW 10.4 mph / 16.7 km/h - N/A   Mostly Cloudy
4:53 PM 46.0°F / 7.8°C 24.1°F / -4.4°C 42% 29.98 in / 1015.2 hPa 10.0 miles / 16.1 kilometers West 4.6 mph / 7.4 km/h - N/A   Mostly Cloudy
5:53 PM 44.1°F / 6.7°C 25.0°F / -3.9°C 47% 30.01 in / 1016.2 hPa 10.0 miles / 16.1 kilometers NW 8.1 mph / 13.0 km/h - N/A   Mostly Cloudy
6:53 PM 44.1°F / 6.7°C 24.1°F / -4.4°C 45% 30.04 in / 1017.0 hPa 10.0 miles / 16.1 kilometers Calm Calm - N/A   Overcast
7:53 PM 39.9°F / 4.4°C 23.0°F / -5.0°C 51% 30.06 in / 1017.7 hPa 10.0 miles / 16.1 kilometers NNW 5.8 mph / 9.3 km/h - N/A   Clear
8:53 PM 37.0°F / 2.8°C 21.9°F / -5.6°C 54% 30.07 in / 1018.2 hPa 10.0 miles / 16.1 kilometers Calm Calm - N/A   Clear
9:53 PM 32.0°F / 0.0°C 21.9°F / -5.6°C 66% 30.09 in / 1018.7 hPa 10.0 miles / 16.1 kilometers Calm Calm - N/A   Clear
10:53 PM 30.0°F / -1.1°C 21.9°F / -5.6°C 72% 30.10 in / 1019.1 hPa 10.0 miles / 16.1 kilometers West 4.6 mph / 7.4 km/h - N/A   Clear
11:53 PM 32.0°F / 0.0°C 21.0°F / -6.1°C 64% 30.10 in / 1019.3 hPa 10.0 miles / 16.1 kilometers West 4.6 mph / 7.4 km/h - N/A   Clear
Moon Phase
Feb. 07 Feb. 10 Feb. 17 Feb. 25 Mar. 04
Sunrise:07:17 AM (PST) Moon Rise:05:07 AM (PST)2/7
Sunset:05:15 PM (PST) Moon Set:02:41 PM (PST)2/7

Copyright © 2014 The Weather Underground, Inc.